{"data":{"norad_id":64388,"intl_designator":"2025-127U","name":"STARLINK-34198","alt_names":[],"object_type":"PAYLOAD","status":"ACTIVE","operator":null,"country":"US","launch_date":"2025-06-13","launch_site_code":"AFETR","launch_vehicle":null,"mission":null,"orbit_class":"UNKNOWN","rcs_meters":null,"size_class":null,"mass_kg":null,"dimensions":null,"purposes":["comms"],"wikipedia_slug":null,"has_3d_model":false,"image_url":null,"decayed_at":null,"tle_current":{"epoch":"2026-09-20T10:13:16.498560Z","epoch_age_seconds":140789,"freshness":"FRESH","line1":"1 64388U 25127U   26263.42588540  .00007249  00000+0  27264-3 0  9996","line2":"2 64388  42.9980 159.6523 0001476 267.3912  92.6771 15.27585274 72256","mean_motion":15.27585274,"eccentricity":0.0001476,"inclination_deg":42.998,"raan_deg":159.6523,"arg_perigee_deg":267.3912,"mean_anomaly_deg":92.6771,"bstar":0.00027264,"rev_number":7225,"period_min":94.266423256971,"perigee_km":482.02059509493,"apogee_km":484.04601256862,"semimajor_km":6861.1703038318,"source":"CELESTRAK","updated_at":"2026-09-21T09:00:35.325634Z"}}}